Santa Barbara, CA

10:10 PM PDT on April 26, 2018 (GMT -0700)
Santa Barbara Municipal

Weather History for KSBA - August, 2013

Change the Weather History Date:

Monday, August 19, 2013

  Actual Average Record
Temperature  
Mean Temperature 63 °F 66 °F  
Max Temperature 70 °F 75 °F 89 °F (1986)
Min Temperature 56 °F 58 °F 50 °F (1943)
Degree Days  
Heating Degree Days 2 1  
Month to date heating degree days 19 19  
Since 1 June heating degree days 71 136  
Since 1 July heating degree days 28 46  
Cooling Degree Days 0 2  
Month to date cooling degree days 6 38  
Year to date cooling degree days 155 110  
Since 1 June cooling degree days 98 96  
Growing Degree Days 12 (Base 50)    
Moisture  
Dew Point 57 °F    
Average Humidity 81    
Maximum Humidity 93    
Minimum Humidity 68    
Precipitation  
Precipitation 0.00 in 0.01 in 0.83 in (1983)
Month to date precipitation 0.00 0.07  
Year to date precipitation 3.42 12.15  
Since 1 July precipitation 0.07  
Sea Level Pressure  
Sea Level Pressure 29.90 in    
Wind  
Wind Speed 4 mph (WSW)    
Max Wind Speed 14 mph    
Max Gust Speed 17 mph    
Visibility 6 miles    
Events      
T = Trace of Precipitation, MM = Missing Value Source: NWS Daily Summary

Daily Weather History Graph

Daily Weather History Graph

Search for Another Location

Airport or City:

Astronomy

Aug. 19, 2013 Rise Set
Actual Time 6:23 AM PDT 7:41 PM PDT
Civil Twilight 5:57 AM PDT 8:07 PM PDT
Nautical Twilight 5:25 AM PDT 8:39 PM PDT
Astronomical Twilight 4:52 AM PDT 9:11 PM PDT
Moon 6:36 PM PDT (8/19) 4:49 AM PDT (8/19)
Length of Visible Light 14h 10m
Length of Day
13h 18m
Waxing Gibbous, 98% of the Moon is Illuminated
Aug 19
Waxing Gibbous
Aug 20
Full
Aug 28
Last Quarter
Sep 5
New
Sep 12
First Quarter

Hourly Weather History & Observations

Time (PDT) Temp. Dew Point Humidity Pressure Visibility Wind Dir Wind Speed Gust Speed Precip Events Conditions
12:04 AM 60.8 °F 57.2 °F 88% 29.91 in 2.0 mi South 3.5 mph - N/A   Overcast
12:24 AM 60.8 °F 57.2 °F 88% 29.91 in 3.0 mi SSE 3.5 mph - N/A   Overcast
12:53 AM 60.1 °F 57.9 °F 93% 29.89 in 4.0 mi West 3.5 mph - N/A   Overcast
1:02 AM 60.8 °F 57.2 °F 88% 29.89 in 1.8 mi Calm Calm - N/A   Overcast
1:15 AM 60.8 °F 57.2 °F 88% 29.89 in 2.0 mi West 3.5 mph - N/A   Overcast
1:29 AM 59.0 °F 57.2 °F 94% 29.89 in 1.2 mi West 4.6 mph - N/A   Overcast
1:53 AM 59.0 °F 57.9 °F 96% 29.89 in 0.8 mi Calm Calm - N/A   Mist
2:07 AM 59.0 °F 57.2 °F 94% 29.88 in 1.2 mi WNW 4.6 mph - N/A   Overcast
2:26 AM 59.0 °F 57.2 °F 94% 29.88 in 2.0 mi WSW 3.5 mph - N/A   Overcast
2:36 AM 59.0 °F 57.2 °F 94% 29.88 in 1.8 mi Calm Calm - N/A   Overcast
2:43 AM 59.0 °F 57.2 °F 94% 29.88 in 2.5 mi Calm Calm - N/A   Overcast
2:53 AM 59.0 °F 57.0 °F 93% 29.88 in 3.0 mi Calm Calm - N/A   Overcast
3:53 AM 59.0 °F 57.0 °F 93% 29.88 in 5.0 mi Calm Calm - N/A   Overcast
4:53 AM 59.0 °F 57.0 °F 93% 29.89 in 6.0 mi Calm Calm - N/A   Overcast
5:53 AM 59.0 °F 57.0 °F 93% 29.90 in 2.0 mi Calm Calm - N/A   Overcast
6:53 AM 59.0 °F 57.0 °F 93% 29.91 in 2.0 mi Calm Calm - N/A   Overcast
7:53 AM 60.1 °F 57.0 °F 90% 29.93 in 3.0 mi Calm Calm - N/A   Overcast
8:53 AM 61.0 °F 57.0 °F 87% 29.94 in 3.0 mi Calm Calm - N/A   Overcast
9:53 AM 63.0 °F 57.9 °F 84% 29.94 in 4.0 mi South 3.5 mph - N/A   Overcast
10:53 AM 64.0 °F 57.0 °F 78% 29.96 in 10.0 mi West 3.5 mph - N/A   Overcast
11:42 AM 66.2 °F 57.2 °F 73% 29.95 in 10.0 mi South 5.8 mph - N/A   Scattered Clouds
11:53 AM 66.9 °F 57.0 °F 70% 29.95 in 10.0 mi SSW 5.8 mph - N/A   Partly Cloudy
12:53 PM 66.9 °F 57.9 °F 73% 29.94 in 10.0 mi South 6.9 mph - N/A   Scattered Clouds
1:53 PM 68.0 °F 57.9 °F 70% 29.93 in 10.0 mi Variable 6.9 mph - N/A   Partly Cloudy
2:53 PM 68.0 °F 57.9 °F 70% 29.91 in 10.0 mi West 9.2 mph - N/A   Partly Cloudy
3:53 PM 68.0 °F 57.9 °F 70% 29.89 in 10.0 mi WSW 8.1 mph - N/A   Partly Cloudy
4:53 PM 68.0 °F 57.0 °F 68% 29.88 in 10.0 mi WSW 9.2 mph - N/A   Clear
5:53 PM 66.0 °F 57.0 °F 73% 29.87 in 10.0 mi West 11.5 mph - N/A   Clear
6:53 PM 63.0 °F 57.0 °F 81% 29.86 in 10.0 mi West 10.4 mph - N/A   Clear
7:53 PM 62.1 °F 57.0 °F 84% 29.87 in 10.0 mi West 9.2 mph - N/A   Clear
8:53 PM 61.0 °F 57.0 °F 87% 29.88 in 10.0 mi West 4.6 mph - N/A   Clear
9:53 PM 60.1 °F 55.9 °F 86% 29.90 in 10.0 mi Calm Calm - N/A   Clear
10:53 PM 57.9 °F 55.0 °F 90% 29.90 in 10.0 mi WNW 3.5 mph - N/A   Clear
11:53 PM 57.9 °F 54.0 °F 87% 29.90 in 10.0 mi Calm Calm - N/A   Clear